Regional Weather Roundup
Issued by NWS

Home | Current Version | Previous Version | Graphics & Text | Print | Product List | Glossary On
Versions: 1 2 3 4 5 6 7 8 9 10 11 12 13 14 15 16 17 18 19 20 21 22 23 24 25 26 27 28 29 30 31 32 33 34 35 36 37 38 39 40 41 42 43 44 45 46 47 48 49 50
000
ASUS43 KLOT 201808
RWRIL

ILLINOIS REGIONAL WEATHER ROUNDUP
NATIONAL WEATHER SERVICE CHICAGO/ROMEOVILLE IL
1200 PM CST TUE FEB 20 2018

NOTE: "FAIR" INDICATES FEW OR NO CLOUDS BELOW 12,000 FEET WITH NO
SIGNIFICANT WEATHER AND/OR OBSTRUCTIONS TO VISIBILITY.

* THESE STATIONS ARE NOT UNDER NWS QUALITY CONTROL. THEY ALSO MAY NOT
  REPORT WEATHER SUCH AS PRECIPITATION OR FOG.

ILZ001-002-007-009-015-016-024-201900-
NORTHWEST ILLINOIS

CITY           SKY/WX    TMP DP  RH WIND       PRES   REMARKS
MOLINE         LGT RAIN  36  35  96 W12       29.93F FOG     WCI  28
6HR MIN TEMP:  36; 6HR MAX TEMP:  39; 6HR PCP:  0.42;

STERLING*        N/A    N/A N/A N/A MISG        N/A
SAVANNA*       RAIN      35  35  99 W6        29.89F WCI  30
$$

ILZ003-004-008-010-011-017-018-201900-
NORTH CENTRAL ILLINOIS

CITY           SKY/WX    TMP DP  RH WIND       PRES   REMARKS
ROCKFORD       CLOUDY    42  42 100 VRB3      29.91R
6HR MIN TEMP:  39; 6HR MAX TEMP:  44; 6HR PCP:  0.23;

FREEPORT*      CLOUDY    37  37 100 W6        29.89R WCI  32
ROCHELLE*      FOG       43  43 100 W15G23    29.87R VSB 1/4
DE KALB*       CLOUDY    57  57 100 S16       29.82F
PERU*          CLOUDY    62  55  77 W20G30    29.85R
$$

ILZ005-006-012>014-019>023-201900-
NORTHEAST ILLINOIS

CITY           SKY/WX    TMP DP  RH WIND       PRES   REMARKS
CHICAGO-OHARE  CLOUDY    65  58  78 S23G32    29.82F
6HR MIN TEMP:  58; 6HR MAX TEMP:  65; 6HR PCP:  0.44;

CHICAGO-MIDWAY CLOUDY    66  61  84 S16G29    29.84F
6HR MIN TEMP:  58; 6HR MAX TEMP:  66; 6HR PCP:  0.21;

AURORA         CLOUDY    64  59  83 S20G28    29.82F
6HR MIN TEMP:  53; 6HR MAX TEMP:  64; 6HR PCP:  0.13;

LANSING*       CLOUDY    64  62  94 SW24G36   29.88F
JOLIET*        CLOUDY    66  62  87 S21G28    29.85F
WAUKEGAN       CLOUDY    51  51 100 SE3       29.80F FOG
6HR MIN TEMP:  51; 6HR MAX TEMP:  57; 6HR PCP:  0.14;

DUPAGE AIRPORT CLOUDY    63  60  90 S16G26    29.82F
6HR MIN TEMP:  56; 6HR MAX TEMP:  63; 6HR PCP: TRACE;

KANKAKEE*      LGT RAIN  62  62  98 SW21G31   29.90F
WHEELING       CLOUDY    66  60  81 S16G29    29.83F
6HR MIN TEMP:  58; 6HR MAX TEMP:  66; 6HR PCP:  0.12;

MORRIS*        CLOUDY    65  61  85 SW25G36   29.83F
ROMEOVILLE*    CLOUDY    64  60  87 SW21G32   29.84F
NORTHERLY ISL    N/A     64  58  80 S24         N/A
$$

LMZ740>746-201900-
SOUTHERN LAKE MICHIGAN

STATION/POSITION SKY/WX   TEMP    WIND        PRES    VSBY  WAVE
                          AIR SEA DIR/SP/G                  HT/PER
                          (F)     (DEG/KT/KT) (MB)    (MI)  (FT/S)
HARRISON CRIB              63     200/ 29/ 33   N/A
BURNHAM HARBOR             65     200/ 20/ 27   N/A
CALUMET HARBOR             64     180/ 15/ 25 1010.5F
BURNS HARBOR               63     200/ 19/ 28 1012.2F
MICHIGAN CITY              64     180/ 22/ 26   N/A
$$

ILZ025>027-034>036-040-047-049-050-058-095>099-201900-
WEST-CENTRAL ILLINOIS

CITY           SKY/WX    TMP DP  RH WIND       PRES   REMARKS
QUINCY         RAIN      36  35  96 N6        29.91F FOG     WCI  31
GALESBURG*     RAIN      36  36 100 NW6       29.92F WCI  31
MACOMB*        MIX PCPN  35  35 100 NW5       29.95S VSB 1/2 WCI  31
JACKSONVILLE*  CLOUDY    66  61  85 S21G31    29.85F
PITTSFIELD*    RAIN      41  39  95 NW17      29.93R
$$

ILZ028>032-037-038-041>044-048-051>054-059>061-201900-
CENTRAL ILLINOIS

CITY           SKY/WX    TMP DP  RH WIND       PRES   REMARKS
PONTIAC        CLOUDY    66  64  93 S31G40    29.86F
BLOOMINGTON    LGT RAIN  62  61  96 S35       29.86F
DECATUR        LGT RAIN  65  64  97 S21G36    29.92F
PEORIA         RAIN      43  40  89 NW16G38   29.90R FOG
6HR MIN TEMP:  44; 6HR MAX TEMP:  67; 6HR PCP: TRACE;

LACON*         RAIN      62  57  83 NW26G40   29.88R
LINCOLN*       HVY RAIN  65  64  97 S24G33    29.86F
SPRINGFIELD    LGT RAIN  67  62  84 S25G33    29.87F
6HR MIN TEMP:  63; 6HR MAX TEMP:  67; 6HR PCP:  0.11;

TAYLORVILLE    CLOUDY    64  63  95 S24G32    29.92S
6HR MIN TEMP:  62; 6HR MAX TEMP:  64; 6HR PCP:  0.08;

$$

ILZ033-039-045-046-055>057-062-063-201900-
EAST-CENTRAL ILLINOIS

CITY           SKY/WX    TMP DP  RH WIND       PRES   REMARKS
CHAMPAIGN      LGT RAIN  64  62  93 S30       29.94F
DANVILLE*      LGT RAIN  64  62  93 S22G30    29.94F
RANTOUL*       LGT RAIN  65  64  96 S20G29    29.94S
MATTOON        LGT RAIN  65  62  90 S18G26    29.98F
PARIS*         DRIZZLE   66  62  85 S22G32    30.01F
$$

ILZ079-100>102-201900-
SOUTHWEST ILLINOIS

CITY           SKY/WX    TMP DP  RH WIND       PRES   REMARKS
ALTON          LGT RAIN  64  64 100 S21G30    29.93F
BELLEVILLE     LGT RAIN  66  63  88 SW15      29.95F
CAHOKIA*       LGT RAIN  66  62  87 S14G24    29.94F
SPARTA*        CLOUDY    69  64  83 S16G25    30.00F
$$

ILZ064>066-069>071-074>076-080>082-084>086-088>090-092>094-201900-
SOUTH-CENTRAL ILLINOIS

CITY           SKY/WX    TMP DP  RH WIND       PRES   REMARKS
CARBONDALE     PTSUNNY   71  63  75 S29G41    30.02F
6HR MIN TEMP:  67; 6HR MAX TEMP:  73;

CAIRO*         PTSUNNY   73  62  66 S13G28    30.07F
EFFINGHAM*     LGT RAIN  69  64  84 S16G22    30.02F
MARION         PTSUNNY   70  63  78 S23G30    30.05F
MT. VERNON     CLOUDY    73  62  68 S29G37    30.01F
CENTRALIA*     CLOUDY    70  64  80 S16G25    30.00F
SALEM*         LGT RAIN  70  62  76 S18G24    30.01F
METROPOLIS*    FAIR      75  58  55 S14G28    30.08F
$$

ILZ067-068-072-073-078-083-087-091-201900-
SOUTHEAST ILLINOIS

CITY           SKY/WX    TMP DP  RH WIND       PRES   REMARKS
LAWRENCEVILLE  PTSUNNY   75  59  57 SW29G38   30.05F
FLORA*         PTSUNNY   73  61  67 S30       30.03F
FAIRFIELD*     PTSUNNY   73  61  65 S17G24    30.03F
HARRISBURG*    CLOUDY    74  62  66 S16G26    30.07F
ROBINSON*      PTSUNNY   73  59  61 SW29G38   30.04F
CARMI*         PTSUNNY   74  60  61 S23G30    30.06F
$$

ABBREVIATIONS USED IN REMARKS
   TC - TEMPERATURE IN CELSIUS
  WCI - WIND CHILL INDEX
   HX - HEAT INDEX
  VSB - VISIBILITY
$$





USA.gov is the U.S. government's official web portal to all federal, state and local government web resources and services.